"2022-10-20 00:01:00",3164805,4.754,101.1358,7.732386,0.5775673,5.61,0,4.237333,102.6763,6.100433,0.5141267,5.13,0,-999,0,9.08,83.9,9.13,9.11,0.2,0,0,9.37,13.21,0.2,101.9009,3.323,3.325,3.323,100,0,0,0,355.7,116.4,116.4
"2022-10-20 00:02:00",3164806,4.745333,102.419,8.11952,0.8319762,6.66,0,3.880666,105.4158,9.076898,0.5456429,4.64,0,-999,0,9.07,84.1,9.17,9.14,0.2,0,0,9.37,13.23,0.2,101.9023,3.325,3.325,3.323,100,0,0,0,355.7,116.4,116.4
"2022-10-20 00:03:00",3164807,5.781334,101.2685,5.958897,0.7425978,7.47,0,4.128,99.7322,4.996539,0.9164147,5.48,0,-999,0,9.1,84.1,9.19,9.17,0.2,0,0,9.37,13.22,0.2,101.8989,3.322,3.325,3.322,100,0,0,0,355.7,116.4,116.4
"2022-10-20 00:04:00",3164808,4.671334,98.77506,6.495569,0.4883151,5.55,0,3.647333,102.4053,5.61541,0.5972322,5.01,0,-999,0,9.13,84,9.22,9.2,0.2,0,0,9.37,13.21,0.2,101.8986,3.323,3.325,3.322,100,0,0,0,355.7,116.4,116.4
"2022-10-20 00:05:00",3164809,4.118,103.8707,6.647079,0.3190026,4.63,0,3.694667,113.066,6.74484,0.6941264,4.9,0,-999,0,9.07,84.7,9.14,9.12,0.2,0,0,9.37,13.23,0.2,101.8997,3.325,3.325,3.323,100,0,0,0,355.7,116.4,116.4
"2022-10-20 00:06:00",3164810,4.196667,109.3295,5.156399,0.572872,5.57,0,3.440667,106.4169,9.295757,0.6052929,4.59,0,-999,0,9.05,84.6,9.12,9.1,0.2,0,0,9.37,13.22,0.2,101.9038,3.323,3.325,3.323,100,0,0,0,355.7,116.4,116.4
"2022-10-20 00:07:00",3164811,4.294667,100.886,9.061594,0.6866913,5.53,0,4.328667,102.8493,7.219022,0.781894,5.93,0,-999,0,9.07,84.3,9.12,9.11,0.2,0,0,9.37,13.22,0.2,101.9,3.324,3.325,3.322,100,0,0,0,355.7,116.4,116.4
"2022-10-20 00:08:00",3164812,4.352,100.1889,9.956617,0.8111572,5.81,0,4.122,106.3162,9.089598,0.7335321,5.66,0,-999,0,9.1,84.1,9.14,9.13,0.2,0,0,9.37,13.24,0.2,101.8979,3.324,3.326,3.324,100,0,0,0,355.7,116.4,116.4
"2022-10-20 00:09:00",3164813,3.965333,108.0064,9.983961,0.5117794,4.67,0,2.746001,115.2706,8.103666,0.4540602,3.67,0,-999,0,9.06,84.4,9.11,9.11,0.2,0,0,9.35,13.23,0.2,101.9031,3.326,3.326,3.323,100,0,0,0,355.7,116.4,116.4
"2022-10-20 00:10:00",3164814,3.984667,112.5943,6.864888,0.6992554,5.65,0,2.92,115.0827,5.616568,0.5725032,4.1,0,-999,0,8.98,84.9,9.05,9.03,0.2,0,0,9.35,13.22,0.2,101.9061,3.325,3.325,3.324,100,0,0,0,355.7,116.4,116.4
"2022-10-20 00:11:00",3164815,3.763334,118.6708,6.970865,0.4619909,4.54,0,3.246667,117.0951,11.01277,0.3903788,4.01,0,-999,0,8.9,85.3,9.02,8.98,0.2,0,0,9.35,13.23,0.2,101.908,3.325,3.326,3.323,100,0,0,0,355.7,116.4,116.4
"2022-10-20 00:12:00",3164816,4.069334,116.7324,7.159592,0.7363103,5.75,0,2.956,122.0708,6.347983,0.5129886,3.92,0,-999,0,8.94,85,9.03,9.03,0.2,0,0,9.35,13.21,0.2,101.9086,3.325,3.325,3.323,100,0,0,0,355.7,116.4,116.4
"2022-10-20 00:13:00",3164817,4.65,119.079,8.705047,0.7439176,6.05,0,2.747333,114.5095,9.721347,0.7852938,4.26,0,-999,0,8.9,84.9,9.02,9,0.2,0,0,9.35,13.24,0.2,101.9081,3.326,3.327,3.325,100,0,0,0,355.7,116.4,116.4
"2022-10-20 00:14:00",3164818,4.45,112.466,6.61644,0.7307804,5.89,0,3.156667,111.2106,8.284107,0.5475359,4.22,0,-999,0,8.92,84.8,9.02,9.02,0.2,0,0,9.35,13.22,0.2,101.9048,3.325,3.327,3.324,100,0,0,0,355.7,116.4,116.4
"2022-10-20 00:15:00",3164819,4.826,112.5385,8.452642,0.5385635,5.91,0,3.525334,114.2886,7.793283,0.55524,4.58,0,-999,0,8.91,84.8,9.02,8.99,0.2,0,0,9.35,13.21,0.2,101.902,3.324,3.326,3.324,100,0,0,0,355.7,116.4,116.4
"2022-10-20 00:16:00",3164820,3.729333,108.2038,10.63153,0.7016692,5.1,0,3.326667,113.1841,7.860885,0.6825019,4.7,0,-999,0,9,84.5,9.05,9.05,0.2,0,0,9.35,13.21,0.2,101.8989,3.324,3.325,3.322,100,0,0,0,355.7,116.4,116.4
"2022-10-20 00:17:00",3164821,4.388,107.0024,7.227536,0.4250208,5.21,0,3.019333,110.5394,5.134096,0.4171405,3.75,0,-999,0,8.91,85,9.03,8.99,0.2,0,0,9.34,13.21,0.2,101.8966,3.322,3.325,3.322,100,0,0,0,355.7,116.4,116.4
"2022-10-20 00:18:00",3164822,3.981333,115.3905,7.524642,0.5321637,5.68,0,3.788,117.2796,7.261507,1.210202,6.17,0,-999,0,8.9,85.4,8.95,8.91,0.2,0,0,9.33,13.23,0.2,101.893,3.324,3.325,3.323,100,0,0,0,355.7,116.4,116.4
"2022-10-20 00:19:00",3164823,5.893333,106.7716,10.44568,1.212626,7.72,0,4.491333,102.3827,15.92415,1.106965,6.92,0,-999,0,8.91,85,9.01,8.98,0.2,0,0,9.32,13.22,0.2,101.897,3.324,3.325,3.322,100,0,0,0,355.7,116.4,116.4
"2022-10-20 00:20:00",3164824,5.224666,113.7728,7.52318,0.885158,6.52,0,4.403333,113.792,8.329924,0.8905853,5.92,0,-999,0,8.96,84.6,9.05,9.04,0.2,0,0,9.32,13.22,0.2,101.891,3.325,3.325,3.323,100,0,0,0,355.7,116.4,116.4
"2022-10-20 00:21:00",3164825,6.120666,118.813,7.638964,1.066499,7.84,0,4.417334,119.2776,7.54459,0.6237251,5.38,0,-999,0,9.02,84.3,9.07,9.08,0.2,0,0,9.32,13.24,0.2,101.8883,3.325,3.325,3.323,100,0,0,0,355.7,116.4,116.4
"2022-10-20 00:22:00",3164826,5.288667,107.2083,7.191894,1.004369,7.22,0,3.920666,113.9959,11.40213,0.7146417,4.96,0,-999,0,8.94,85.1,9.02,8.99,0.2,0,0,9.32,13.23,0.2,101.8816,3.325,3.325,3.323,100,0,0,0,355.7,116.4,116.4
"2022-10-20 00:23:00",3164827,5.395999,107.0687,7.573501,0.7913517,7,0,3.633333,102.2357,8.616668,0.825588,4.91,0,-999,0,8.9,85.1,9.03,8.99,0.2,0,0,9.32,13.24,0.2,101.8774,3.325,3.325,3.323,100,0,0,0,355.7,116.4,116.4
"2022-10-20 00:24:00",3164828,5.524,101.2525,6.629974,0.8562227,6.74,0,3.920667,106.2663,4.023817,0.6085225,4.9,0,-999,0,8.93,84.8,9.03,9.02,0.2,0,0,9.31,13.23,0.2,101.8744,3.324,3.325,3.323,100,0,0,0,355.7,116.4,116.4
"2022-10-20 00:25:00",3164829,5.986,102.8677,3.537414,0.8039553,7.77,0,3.461334,103.3928,5.529714,0.6240606,4.36,0,-999,0,8.89,85.2,8.96,8.94,0.2,0,0,9.3,13.22,0.2,101.8803,3.323,3.323,3.321,100,0,0,0,355.7,116.4,116.4
"2022-10-20 00:26:00",3164830,4.474,101.6678,5.483057,0.514973,5.45,0,4.154666,104.7303,7.02047,0.6731109,6.03,0,-999,0,8.89,85,9,8.97,0.2,0,0,9.3,13.22,0.2,101.8749,3.321,3.323,3.321,100,0,0,0,355.7,116.4,116.4
"2022-10-20 00:27:00",3164831,4.840667,107.1965,5.762918,0.5968078,5.76,0,2.568,110.2628,7.539476,0.5420849,3.53,0,-999,0,8.86,85.4,8.91,8.9,0.2,0,0,9.3,13.24,0.2,101.8716,3.323,3.323,3.321,100,0,0,0,355.7,116.4,116.4
"2022-10-20 00:28:00",3164832,5.188001,110.0658,8.395002,0.7415767,6.73,0,2.946667,101.5047,12.22654,0.7854822,4.24,0,-999,0,8.75,85.9,8.85,8.81,0.2,0,0,9.3,13.22,0.2,101.875,3.321,3.323,3.321,100,0,0,0,355.7,116.4,116.4
"2022-10-20 00:29:00",3164833,4.264667,110.1321,7.594577,0.5316875,5.32,0,2.88,114.9527,6.273214,0.3387033,3.34,0,-999,0,8.8,85.3,8.89,8.87,0.2,0,0,9.3,13.22,0.2,101.8782,3.32,3.322,3.32,100,0,0,0,355.7,116.4,116.4
"2022-10-20 00:30:00",3164834,4.898,103.6074,10.27299,1.165214,7.17,0,4.080667,108.1713,8.729458,1.005455,5.85,0,-999,0,8.76,85.6,8.85,8.8,0.2,0,0,9.3,13.22,0.2,101.8757,3.321,3.321,3.318,100,0,0,0,355.7,116.4,116.4
"2022-10-20 00:31:00",3164835,6.492,107.3328,3.456995,0.4307389,7.24,0,4.335333,109.7482,8.181099,0.5393683,5.32,0,-999,0,8.85,85.1,8.95,8.91,0.2,0,0,9.3,13.23,0.2,101.8762,3.32,3.321,3.32,100,0,0,0,355.7,116.4,116.4
"2022-10-20 00:32:00",3164836,4.826667,111.0033,7.79364,0.8575599,6.34,0,3.894666,116.1718,12.23936,0.6866426,5.11,0,-999,0,8.9,85,8.98,8.96,0.2,0,0,9.29,13.23,0.2,101.8821,3.319,3.321,3.318,100,0,0,0,355.7,116.4,116.4
"2022-10-20 00:33:00",3164837,4.808667,118.0391,8.644362,0.6163859,6.09,0,2.688667,117.2964,9.210347,0.4210601,3.36,0,-999,0,8.83,85.7,8.89,8.86,0.2,0,0,9.28,13.23,0.2,101.8828,3.32,3.321,3.318,100,0,0,0,355.7,116.4,116.4
"2022-10-20 00:34:00",3164838,4.718667,107.7312,3.784452,0.4451946,5.53,0,3.425333,111.7977,7.079249,0.5080926,4.11,0,-999,0,8.75,86.2,8.82,8.78,0.2,0,0,9.29,13.24,0.2,101.8762,3.319,3.321,3.319,100,0,0,0,355.7,116.4,116.4
"2022-10-20 00:35:00",3164839,3.846667,107.2613,9.57283,0.5855558,4.64,0,2.452,106.9574,12.66464,0.6069179,3.57,0,-999,0,8.7,86.2,8.77,8.75,0.2,0,0,9.28,13.23,0.2,101.873,3.318,3.32,3.317,100,0,0,0,355.7,116.4,116.4
"2022-10-20 00:36:00",3164840,4.035334,103.1197,9.336197,0.8938523,5.41,0,3.032667,108.7148,12.88796,0.7557289,4.34,0,-999,0,8.7,86,8.77,8.75,0.2,0,0,9.28,13.22,0.2,101.871,3.318,3.32,3.317,100,0,0,0,355.7,116.4,116.4
"2022-10-20 00:37:00",3164841,5.326,106.1466,6.824271,0.6418391,6.57,0,2.425333,112.441,9.41833,0.4199503,3.1,0,-999,0,8.65,86.2,8.72,8.72,0.2,0,0,9.28,13.23,0.2,101.8726,3.318,3.32,3.318,100,0,0,0,355.7,116.4,116.4
"2022-10-20 00:38:00",3164842,4.214,110.5734,10.92868,0.5163693,5.14,0,3.242667,115.6928,11.62964,1.167901,4.89,0,-999,0,8.6,86.3,8.72,8.68,0.2,0,0,9.28,13.23,0.2,101.872,3.318,3.32,3.317,100,0,0,0,355.7,116.4,116.4
"2022-10-20 00:39:00",3164843,4.559999,100.6409,11.03354,0.7459223,5.92,0,2.608667,106.337,9.605817,0.5809518,4.07,0,-999,0,8.6,86.3,8.73,8.7,0.2,0,0,9.26,13.24,0.2,101.8703,3.318,3.319,3.317,100,0,0,0,355.7,116.4,116.4
"2022-10-20 00:40:00",3164844,3.868667,95.89153,8.21701,0.8353112,5.35,0,3.747333,107.6632,7.541304,0.7729205,5.36,0,-999,0,8.69,86.1,8.78,8.76,0.2,0,0,9.26,13.23,0.2,101.8652,3.318,3.318,3.317,100,0,0,0,355.7,116.4,116.4
"2022-10-20 00:41:00",3164845,3.818,100.6063,7.232412,1.16107,6.22,0,3.340667,93.18482,9.295069,0.7732397,4.93,0,-999,0,8.77,85.8,8.85,8.83,0.2,0,0,9.26,13.22,0.2,101.8698,3.318,3.319,3.316,100,0,0,0,355.7,116.4,116.4
"2022-10-20 00:42:00",3164846,3.600667,102.2263,11.02142,0.6194349,4.57,0,3.114,97.55017,9.318983,0.4532079,4.12,0,-999,0,8.8,85.9,8.86,8.83,0.2,0,0,9.26,13.22,0.2,101.8663,3.317,3.318,3.316,100,0,0,0,355.7,116.4,116.4
"2022-10-20 00:43:00",3164847,3.351334,106.5416,7.324597,0.2827452,3.87,0,2.780667,115.3505,8.09395,0.395398,3.35,0,-999,0,8.75,86.2,8.82,8.78,0.2,0,0,9.26,13.22,0.2,101.8684,3.318,3.318,3.317,100,0,0,0,355.7,116.4,116.4
"2022-10-20 00:44:00",3164848,4.274667,109.2006,10.3004,0.6226703,5.43,0,2.832667,111.5236,8.822028,0.7361564,4.35,0,-999,0,8.67,86.5,8.73,8.71,0.2,0,0,9.26,13.22,0.2,101.8673,3.316,3.318,3.315,100,0,0,0,355.7,116.4,116.4
"2022-10-20 00:45:00",3164849,4.407333,102.2002,7.695514,0.8188241,6.42,0,2.682,95.40466,6.382626,0.4549901,3.87,0,-999,0,8.6,86.5,8.69,8.66,0.2,0,0,9.24,13.24,0.2,101.8597,3.318,3.318,3.317,100,0,0,0,355.7,116.4,116.4
"2022-10-20 00:46:00",3164850,4.330667,98.25708,7.699405,0.562808,5.33,0,3.968667,101.7811,8.993494,0.8599215,5.47,0,-999,0,8.68,86.1,8.79,8.75,0.2,0,0,9.24,13.23,0.2,101.8587,3.317,3.318,3.317,100,0,0,0,355.7,116.4,116.4
"2022-10-20 00:47:00",3164851,4.350667,94.19594,7.834791,0.7340795,6.16,0,3.038666,93.34622,6.773861,0.5784216,3.92,0,-999,0,8.7,85.9,8.8,8.79,0.2,0,0,9.24,13.23,0.2,101.855,3.317,3.319,3.316,100,0,0,0,355.7,116.4,116.4
"2022-10-20 00:48:00",3164852,4.052,106.6044,5.801381,0.4878688,4.87,0,3.005333,113.609,12.72524,0.7460372,4.51,0,-999,0,8.7,86.4,8.79,8.76,0.2,0,0,9.22,13.24,0.2,101.8534,3.318,3.318,3.316,100,0,0,0,355.7,116.4,116.4
"2022-10-20 00:49:00",3164853,4.87,105.5269,7.323704,0.5207559,5.81,0,3.04,104.9961,4.951564,0.2965356,3.64,0,-999,0,8.67,86.6,8.76,8.72,0.2,0,0,9.21,13.24,0.2,101.8531,3.317,3.317,3.316,100,0,0,0,355.7,116.4,116.4
"2022-10-20 00:50:00",3164854,5.001333,103.8,10.54166,0.6297816,5.97,0,3.902,102.1309,7.512326,1.116006,5.68,0,-999,0,8.67,86.4,8.79,8.74,0.2,0,0,9.21,13.23,0.2,101.8517,3.316,3.317,3.315,100,0,0,0,355.7,116.4,116.4
"2022-10-20 00:51:00",3164855,4.729333,104.3971,5.134326,1.010957,6.09,0,3.132667,95.65932,8.566581,0.7907925,4.81,0,-999,0,8.7,86.2,8.79,8.77,0.2,0,0,9.21,13.23,0.2,101.845,3.316,3.317,3.315,100,0,0,0,355.7,116.4,116.4
"2022-10-20 00:52:00",3164856,4.289334,95.23349,8.640398,0.6204994,5.41,0,3.629333,95.07875,8.445457,0.4294565,4.34,0,-999,0,8.75,86.1,8.85,8.81,0.2,0,0,9.21,13.23,0.2,101.8425,3.316,3.317,3.316,100,0,0,0,355.7,116.4,116.4
"2022-10-20 00:53:00",3164857,5.433333,100.4163,7.217732,0.6479677,6.44,0,3.410666,102.0413,16.14544,0.7099621,5.05,0,-999,0,8.77,86,8.86,8.83,0.2,0,0,9.2,13.23,0.2,101.8434,3.317,3.317,3.315,100,0,0,0,355.7,116.4,116.4
"2022-10-20 00:54:00",3164858,5.573333,103.4772,10.20446,0.7088551,7.57,0,3.938,98.93919,10.09513,0.8084157,5.4,0,-999,0,8.8,85.8,8.91,8.89,0.2,0,0,9.19,13.23,0.2,101.8434,3.316,3.317,3.315,100,0,0,0,355.7,116.4,116.4
"2022-10-20 00:55:00",3164859,4.809333,103.7514,8.971285,0.8487123,6.12,0,4.214,108.2002,5.738698,0.8262348,5.53,0,-999,0,8.87,85.5,8.97,8.93,0.2,0,0,9.19,13.23,0.2,101.8382,3.317,3.317,3.314,100,0,0,0,355.7,116.4,116.4
"2022-10-20 00:56:00",3164860,4.029333,99.7982,4.788565,0.5316323,5.07,0,3.223334,99.06994,6.379174,0.6182951,4.52,0,-999,0,8.83,85.9,8.92,8.91,0.2,0,0,9.19,13.23,0.2,101.8351,3.315,3.316,3.314,100,0,0,0,355.7,116.4,116.4
"2022-10-20 00:57:00",3164861,3.252,98.46007,9.238678,0.4320525,4.05,0,3.47,96.80682,5.93214,0.534191,4.36,0,-999,0,8.8,86.2,8.88,8.85,0.2,0,0,9.19,13.23,0.2,101.8357,3.314,3.316,3.312,100,0,0,0,355.7,116.4,116.4
"2022-10-20 00:58:00",3164862,3.795334,96.20797,6.366203,0.4944474,4.97,0,3.072,96.6162,10.84615,0.7887728,4.62,0,-999,0,8.79,86.1,8.86,8.84,0.2,0,0,9.18,13.22,0.2,101.8361,3.314,3.314,3.311,100,0,0,0,355.7,116.4,116.4
"2022-10-20 00:59:00",3164863,4.590001,98.79576,13.32393,0.6914237,6.28,0,3.200667,101.4476,11.7517,0.6409833,4.32,0,-999,0,8.7,86.3,8.81,8.8,0.2,0,0,9.17,13.25,0.2,101.8337,3.317,3.317,3.314,100,0,0,0,355.7,116.4,116.4
"2022-10-20 01:00:00",3164864,5.056666,97.58784,6.636559,0.9789222,6.61,0,2.759333,98.58643,8.879537,0.5206979,4.03,0,-999,0,8.7,86.4,8.81,8.79,0.2,0,0,9.17,13.22,0.2,101.8329,3.314,3.317,3.314,100,0,0,0,355.7,116.4,116.4
"2022-10-20 01:01:00",3164865,5.416,101.4769,7.194921,0.6992549,6.37,0,3.632667,99.70126,8.766329,0.697304,5.05,0,-999,0,8.72,86.5,8.84,8.8,0.2,0,0,9.17,13.21,0.2,101.8323,3.312,3.316,3.312,100,0,0,0,355.7,116.4,116.4
"2022-10-20 01:02:00",3164866,4.56,102.6606,5.393811,0.5533655,5.39,0,3.441334,108.2882,8.849216,0.7057371,4.77,0,-999,0,8.8,86.3,8.9,8.84,0.2,0,0,9.17,13.23,0.2,101.8377,3.314,3.315,3.312,100,0,0,0,355.7,116.4,116.4
"2022-10-20 01:03:00",3164867,4.309333,106.3923,8.217022,0.5721009,5.3,0,3.803333,104.3373,11.23538,0.8062065,5.95,0,-999,0,8.8,86.2,8.89,8.86,0.2,0,0,9.17,13.22,0.2,101.8376,3.312,3.315,3.312,100,0,0,0,355.7,116.4,116.4
"2022-10-20 01:04:00",3164868,4.046667,107.7283,5.820044,0.3984916,4.82,0,3.605333,109.23,10.89023,0.8705313,5.25,0,-999,0,8.79,86.3,8.87,8.83,0.2,0,0,9.16,13.24,0.2,101.8329,3.315,3.315,3.312,100,0,0,0,355.7,116.4,116.4
"2022-10-20 01:05:00",3164869,4.343333,107.2996,8.963033,0.4684537,5.32,0,2.620667,103.3278,6.931011,0.4931459,3.64,0,-999,0,8.71,86.6,8.81,8.8,0.2,0,0,9.17,13.24,0.2,101.8372,3.316,3.316,3.314,100,0,0,0,355.7,116.4,116.4
"2022-10-20 01:06:00",3164870,4.634666,110.0706,6.703173,0.7655662,5.98,0,3.614666,115.6675,8.062145,0.7737688,4.69,0,-999,0,8.73,86.5,8.83,8.81,0.2,0,0,9.15,13.23,0.2,101.8362,3.315,3.316,3.312,100,0,0,0,355.7,116.4,116.4
"2022-10-20 01:07:00",3164871,4.704,110.7223,10.59274,0.7626603,5.62,0,3.055333,111.3909,10.13495,0.9363537,5.07,0,-999,0,8.77,86.3,8.86,8.83,0.2,0,0,9.15,13.23,0.2,101.8388,3.314,3.316,3.314,100,0,0,0,355.7,116.4,116.4
"2022-10-20 01:08:00",3164872,4.373334,114.4005,7.994912,0.7067454,5.62,0,2.46,120.5145,10.98357,0.7108117,3.98,0,-999,0,8.74,86.2,8.83,8.82,0.2,0,0,9.15,13.24,0.2,101.8387,3.314,3.315,3.312,100,0,0,0,355.7,116.4,116.4
"2022-10-20 01:09:00",3164873,4.146,118.6839,10.052,0.5639598,5.18,0,3.897333,118.8773,14.15376,1.028063,5.75,0,-999,0,8.7,86.4,8.8,8.78,0.2,0,0,9.15,13.22,0.2,101.8374,3.312,3.314,3.312,100,0,0,0,355.7,116.4,116.4
"2022-10-20 01:10:00",3164874,4.858667,113.4567,11.69537,1.056137,6.9,0,4.033334,114.452,6.87108,0.8952889,5.54,0,-999,0,8.79,85.7,8.91,8.89,0.2,0,0,9.14,13.22,0.2,101.834,3.31,3.314,3.31,100,0,0,0,355.7,116.4,116.4
"2022-10-20 01:11:00",3164875,5.338,109.9991,6.529245,0.7550293,6.73,0,3.215333,113.3169,7.909383,0.4178176,4.12,0,-999,0,8.8,85.8,8.91,8.9,0.2,0,0,9.13,13.23,0.2,101.8354,3.312,3.312,3.309,100,0,0,0,355.7,116.4,116.4
"2022-10-20 01:12:00",3164876,5.015334,114.672,4.724375,0.2926401,5.74,0,3.708667,115.2071,5.908403,0.6142949,5.19,0,-999,0,8.78,85.9,8.87,8.86,0.2,0,0,9.12,13.21,0.2,101.8336,3.31,3.311,3.309,100,0,0,0,355.7,116.4,116.4
"2022-10-20 01:13:00",3164877,4.824,111.653,7.790175,0.5967557,5.83,0,2.788666,113.6258,10.82448,0.3734142,3.51,0,-999,0,8.7,86.5,8.79,8.76,0.2,0,0,9.12,13.21,0.2,101.8353,3.308,3.311,3.308,100,0,0,0,355.7,116.4,116.4
"2022-10-20 01:14:00",3164878,5.067334,118.0145,8.101606,0.8320214,6.23,0,4.290667,115.2467,8.601029,0.5544543,5.13,0,-999,0,8.63,86.6,8.75,8.71,0.2,0,0,9.12,13.22,0.2,101.8329,3.308,3.309,3.308,100,0,0,0,355.7,116.4,116.4
"2022-10-20 01:15:00",3164879,4.236,108.5916,7.062872,0.7946723,6.32,0,4.241334,104.3546,7.371773,0.8638045,6.4,0,-999,0,8.65,86.3,8.76,8.74,0.2,0,0,9.12,13.23,0.2,101.8284,3.308,3.31,3.308,100,0,0,0,355.7,116.4,116.4
"2022-10-20 01:16:00",3164880,4.391333,107.947,8.615975,0.8956478,6.5,0,3.92,107.0029,4.454648,0.8309111,6.5,0,-999,0,8.67,86.3,8.76,8.75,0.2,0,0,9.12,13.23,0.2,101.8262,3.308,3.309,3.307,100,0,0,0,355.7,116.4,116.4
"2022-10-20 01:17:00",3164881,6.675333,106.551,8.982785,0.6731604,7.99,0,4.793334,109.2699,8.831411,0.8836564,6.6,0,-999,0,8.67,86.3,8.8,8.78,0.2,0,0,9.12,13.22,0.2,101.8181,3.307,3.308,3.306,100,0,0,0,355.7,116.4,116.4
"2022-10-20 01:18:00",3164882,6.706667,109.8669,3.180154,0.5499535,7.56,0,3.422667,107.0651,7.940394,0.468451,4.55,0,-999,0,8.78,86,8.83,8.84,0.2,0,0,9.11,13.22,0.2,101.8172,3.305,3.307,3.305,100,0,0,0,355.7,116.4,116.4
"2022-10-20 01:19:00",3164883,5.127334,112.0858,7.90647,0.6924399,6.46,0,4.5,109.3931,6.158373,0.8221598,6.13,0,-999,0,8.78,86,8.83,8.84,0.2,0,0,9.1,13.24,0.2,101.8118,3.307,3.307,3.305,100,0,0,0,355.7,116.4,116.4
"2022-10-20 01:20:00",3164884,4.658667,110.1346,5.004508,0.4719303,5.43,0,3.260667,115.279,7.012276,0.4559015,4.42,0,-999,0,8.71,86.1,8.79,8.79,0.2,0,0,9.1,13.23,0.2,101.8132,3.306,3.307,3.305,100,0,0,0,355.7,116.4,116.4
"2022-10-20 01:21:00",3164885,4.634001,110.4038,8.097056,0.8386561,5.97,0,3.690667,106.2581,8.285032,0.6078977,5,0,-999,0,8.67,86.5,8.77,8.74,0.2,0,0,9.1,13.22,0.2,101.8135,3.304,3.307,3.304,100,0,0,0,355.7,116.4,116.4
"2022-10-20 01:22:00",3164886,4.315333,108.9375,7.882915,0.4125994,4.99,0,3.038666,108.3286,7.791754,0.6539203,4.28,0,-999,0,8.69,86.4,8.76,8.76,0.2,0,0,9.1,13.22,0.2,101.8128,3.304,3.305,3.304,100,0,0,0,355.7,116.4,116.4
"2022-10-20 01:23:00",3164887,4.003333,107.0209,8.400759,0.5809609,4.69,0,2.884,107.403,4.988204,0.6304368,4.23,0,-999,0,8.61,86.5,8.7,8.69,0.2,0,0,9.1,13.23,0.2,101.8093,3.304,3.305,3.303,100,0,0,0,355.7,116.4,116.4
"2022-10-20 01:24:00",3164888,4.263334,110.0672,5.480218,0.4795785,5.23,0,2.816667,111.2638,6.357279,0.5662705,3.6,0,-999,0,8.53,86.9,8.65,8.63,0.2,0,0,9.1,13.22,0.2,101.8103,3.304,3.305,3.303,100,0,0,0,355.7,116.4,116.4
"2022-10-20 01:25:00",3164889,4.879333,115.3481,11.01235,0.9811726,6.4,0,4.034667,112.8704,8.966092,1.124579,5.82,0,-999,0,8.51,87,8.64,8.63,0.2,0,0,9.08,13.23,0.2,101.8097,3.304,3.304,3.302,100,0,0,0,355.7,116.4,116.4
"2022-10-20 01:26:00",3164890,5.044,108.7939,4.938056,0.7466353,6.98,0,4.417334,112.7446,6.830659,0.794124,5.82,0,-999,0,8.51,86.7,8.64,8.64,0.2,0,0,9.08,13.21,0.2,101.8093,3.303,3.304,3.302,100,0,0,0,355.7,116.4,116.4
"2022-10-20 01:27:00",3164891,5.330667,110.3455,6.1967,1.035081,6.95,0,3.131333,113.4263,8.176468,0.4818833,3.88,0,-999,0,8.51,86.9,8.64,8.63,0.2,0,0,9.08,13.22,0.2,101.8108,3.301,3.304,3.301,100,0,0,0,355.7,116.4,116.4
"2022-10-20 01:28:00",3164892,5.052667,118.4016,7.121964,0.6171598,6.04,0,3.581333,112.2007,8.462054,0.6393003,4.6,0,-999,0,8.5,87.3,8.6,8.59,0.2,0,0,9.08,13.22,0.2,101.8104,3.302,3.303,3.301,100,0,0,0,355.7,116.4,116.4
"2022-10-20 01:29:00",3164893,4.482666,109.8653,6.200999,0.5442973,5.54,0,3.881333,112.5254,7.452408,0.4605918,4.73,0,-999,0,8.5,87.2,8.6,8.6,0.2,0,0,9.08,13.23,0.2,101.8059,3.302,3.303,3.301,100,0,0,0,355.7,116.4,116.4
"2022-10-20 01:30:00",3164894,5.584,114.0062,5.930777,0.9015157,7.02,0,3.613333,110.6063,7.406746,0.6289639,5.03,0,-999,0,8.5,86.9,8.6,8.61,0.2,0,0,9.08,13.24,0.2,101.8031,3.3,3.303,3.3,100,0,0,0,355.7,116.4,116.4
"2022-10-20 01:31:00",3164895,5.486667,119.3314,7.645324,1.150383,8.08,0,3.968,118.8072,16.51041,0.9665622,5.42,0,-999,0,8.57,86.4,8.66,8.66,0.2,0,0,9.07,13.23,0.2,101.797,3.301,3.301,3.3,100,0,0,0,355.7,116.4,116.4
"2022-10-20 01:32:00",3164896,5.444667,112.6636,6.038305,0.8789074,6.73,0,4.199333,109.4529,7.648476,0.6029757,5.13,0,-999,0,8.6,86.3,8.69,8.68,0.2,0,0,9.06,13.21,0.2,101.7999,3.3,3.302,3.299,100,0,0,0,355.7,116.4,116.4
"2022-10-20 01:33:00",3164897,4.930666,113.7933,5.225363,0.922182,6.58,0,3.542667,119.4866,11.08003,0.6194134,4.93,0,-999,0,8.6,86.4,8.68,8.68,0.2,0,0,9.06,13.19,0.2,101.7978,3.297,3.3,3.297,100,0,0,0,355.7,116.4,116.4
"2022-10-20 01:34:00",3164898,3.594,108.3301,8.999238,0.4764423,4.38,0,3.554667,114.4743,7.649655,0.5852278,4.63,0,-999,0,8.51,87,8.6,8.58,0.2,0,0,9.06,13.25,0.2,101.7938,3.3,3.3,3.298,100,0,0,0,355.7,116.4,116.4
"2022-10-20 01:35:00",3164899,4.706,104.0082,8.971775,0.9112688,6.02,0,3.728,101.3002,9.348197,0.6575632,5.09,0,-999,0,8.49,87.2,8.6,8.56,0.2,0,0,9.04,13.2,0.2,101.7901,3.297,3.3,3.296,100,0,0,0,355.7,116.4,116.4
"2022-10-20 01:36:00",3164900,5.103333,101.1574,7.909773,0.8000888,6.58,0,3.122667,109.029,7.313241,0.3798678,3.81,0,-999,0,8.5,86.9,8.59,8.57,0.2,0,0,9.03,13.22,0.2,101.7868,3.297,3.3,3.296,100,0,0,0,355.7,116.4,116.4
"2022-10-20 01:37:00",3164901,5.238,111.8076,7.463291,0.5728199,6.47,0,3.848666,115.6483,7.443811,0.6023937,4.7,0,-999,0,8.41,87.3,8.5,8.49,0.2,0,0,9.03,13.21,0.2,101.7881,3.297,3.298,3.296,100,0,0,0,355.7,116.4,116.4
"2022-10-20 01:38:00",3164902,5.362667,111.7966,6.532922,0.6939209,7.19,0,4.204,110.0131,13.58651,0.6887553,5.52,0,-999,0,8.41,87,8.53,8.5,0.2,0,0,9.03,13.22,0.2,101.7897,3.298,3.298,3.296,100,0,0,0,355.7,116.4,116.4
"2022-10-20 01:39:00",3164903,4.634666,119.3346,9.957704,0.5648347,5.79,0,4.147333,121.4086,7.641781,0.5085071,5.02,0,-999,0,8.45,86.9,8.54,8.53,0.2,0,0,9.03,13.21,0.2,101.7889,3.297,3.298,3.294,100,0,0,0,355.7,116.4,116.4
"2022-10-20 01:40:00",3164904,5.198667,112.7295,7.83208,0.6412058,5.93,0,3.52,115.9684,13.09074,0.4572964,4.14,0,-999,0,8.43,87.1,8.55,8.52,0.2,0,0,9.03,13.21,0.2,101.7883,3.297,3.298,3.294,100,0,0,0,355.7,116.4,116.4
"2022-10-20 01:41:00",3164905,3.972667,107.9269,7.872204,0.5580856,4.96,0,2.894666,116.2494,5.982734,0.7632113,4.12,0,-999,0,8.43,87.2,8.51,8.51,0.2,0,0,9.01,13.21,0.2,101.7861,3.297,3.297,3.294,100,0,0,0,355.7,116.4,116.4
"2022-10-20 01:42:00",3164906,4.232,111.9321,6.513248,0.5795884,5.05,0,2.134667,109.3367,7.680675,0.4668457,3.26,0,-999,0,8.39,87.8,8.47,8.47,0.2,0,0,9.01,13.22,0.2,101.7888,3.296,3.296,3.292,100,0,0,0,355.7,116.4,116.4
"2022-10-20 01:43:00",3164907,3.77,115.5231,8.517119,0.4895167,4.85,0,3.301333,120.6027,9.998951,0.5149223,4.26,0,-999,0,8.39,87.6,8.47,8.47,0.2,0,0,9.01,13.22,0.2,101.7865,3.296,3.296,3.292,100,0,0,0,355.7,116.4,116.4
"2022-10-20 01:44:00",3164908,4.223333,106.5871,8.579263,0.7566563,5.68,0,3.066,107.565,10.39267,0.507409,4.08,0,-999,0,8.35,87.3,8.45,8.45,0.2,0,0,9,13.22,0.2,101.7783,3.296,3.296,3.292,100,0,0,0,355.7,116.4,116.4
"2022-10-20 01:45:00",3164909,5.288,104.465,5.436659,0.9442683,6.94,0,2.718,101.0327,8.335163,0.3405525,3.59,0,-999,0,8.28,87.7,8.38,8.37,0.2,0,0,8.99,13.23,0.2,101.7746,3.293,3.296,3.293,100,0,0,0,355.7,116.4,116.4
"2022-10-20 01:46:00",3164910,4.725334,103.8455,7.983922,1.014803,7.32,0,3.667333,104.8711,12.0467,0.5784169,4.74,0,-999,0,8.3,87.7,8.43,8.41,0.2,0,0,8.99,13.23,0.2,101.7727,3.296,3.296,3.292,100,0,0,0,355.7,116.4,116.4
"2022-10-20 01:47:00",3164911,4.562001,108.1292,6.101015,0.4995091,5.69,0,4.019333,112.0742,6.720037,0.6734634,5.46,0,-999,0,8.3,87.6,8.44,8.41,0.2,0,0,8.99,13.22,0.2,101.7658,3.296,3.296,3.292,100,0,0,0,355.7,116.4,116.4
"2022-10-20 01:48:00",3164912,4.452667,101.9179,8.72995,0.8580091,5.59,0,3.024,109.1453,6.864989,0.5123255,4.04,0,-999,0,8.3,88.1,8.38,8.38,0.2,0,0,8.98,13.22,0.2,101.7659,3.294,3.296,3.292,100,0,0,0,355.7,116.4,116.4
"2022-10-20 01:49:00",3164913,4.706,105.4654,7.077194,0.6706892,5.79,0,3.036,108.3306,8.885641,0.5206509,4.1,0,-999,0,8.3,88.1,8.44,8.39,0.2,0,0,8.97,13.23,0.2,101.7626,3.296,3.296,3.293,100,0,0,0,355.7,116.4,116.4